Content
SEND FEEDBACK

Daily
Averages
Monthly
Summary
France

LE HAVRE, FRANCE


Home > Europe > France
Elevation: 338 feet     Latitude: 49 31N     Longitude: 000 04E

WEATHER
 
SELECT A DAY
Number of Records: 176,732;   Date Range: 3/4/97 - 8/10/14
 
SHARE

PRINT THIS DATA

[ ← Previous Day ]
WEATHER ALMANAC - MARCH 1, 2013
[ Next Day → ]
[ °C ]   °F
Weather ElementAverageHighLow
Temperature37.1 °F41 °F (12:30 pm)33.8 °F (12:30 am)
Dewpoint31.6 °F35.6 °F (3:30 pm)28.4 °F (9:30 pm)
Humidity80.9 %93 % (4:30 am)70 % (12:00 pm)
Barometer30.30 in30.33 in (9:30 pm)30.27 in (4:00 am)
Wind Speed10.7 mph17.3 mph (9:30 pm)
Weather ElementAverage
Visibility5 mi
Wind DirectionENE (59.8 °)

Weather ElementTotal
Precipitation---
Heating Degree Days27.6 (Base 65)
Averaged from 47 records on March 1, 2013
WEATHER CONDITIONS BREAKOUT
WIND DIRECTION BREAKOUT
WEATHER BY HOUR - MARCH 1, 2013
[ °C ]   °F
Local TimeTemperatureDewpointHumidityBarometerVisibilityWind DirectionWind SpeedGust SpeedPrecipitationEventsConditions
12:30 AM33.8 °F30.2 °F87 %30.30 in3.7 miENE (70°)6.9 mphOvercast
1:00 AM33.8 °F30.2 °F87 %30.30 in5.0 miENE (60°)6.9 mphOvercast
1:30 AM33.8 °F30.2 °F87 %30.30 in4.3 miNE (40°)9.2 mphOvercast
2:00 AM33.8 °F30.2 °F87 %30.30 in5.0 miNE (50°)8.1 mphOvercast
2:30 AM33.8 °F30.2 °F87 %30.30 in5.0 miENE (60°)6.9 mphOvercast
3:00 AM33.8 °F30.2 °F87 %30.30 in4.3 miENE (60°)6.9 mphOvercast
3:30 AM33.8 °F30.2 °F87 %30.30 in4.3 miNE (50°)9.2 mphOvercast
4:00 AM33.8 °F30.2 °F87 %30.27 in3.7 miENE (60°)9.2 mphOvercast
4:30 AM33.8 °F32.0 °F93 %30.27 in3.1 miENE (60°)9.2 mphOvercast
5:00 AM33.8 °F32.0 °F93 %30.27 in3.1 miENE (60°)8.1 mphOvercast
5:30 AM33.8 °F32.0 °F93 %30.27 in3.1 miENE (60°)8.1 mphOvercast
6:00 AM33.8 °F32.0 °F93 %30.27 in3.7 miENE (60°)8.1 mphOvercast
6:30 AM35.6 °F30.2 °F81 %30.27 in3.7 miENE (60°)10.4 mphOvercast
7:00 AM35.6 °F30.2 °F81 %30.27 in3.7 miENE (60°)9.2 mphOvercast
7:30 AM35.6 °F30.2 °F81 %30.27 in3.1 miENE (60°)10.4 mphOvercast
8:00 AM35.6 °F32.0 °F87 %30.30 in3.1 miENE (60°)9.2 mphOvercast
8:30 AM35.6 °F32.0 °F87 %30.30 in3.1 miENE (60°)10.4 mphOvercast
9:00 AM35.6 °F32.0 °F87 %30.30 in3.1 miENE (60°)8.1 mphOvercast
9:30 AM35.6 °F30.2 °F81 %30.30 in3.7 miENE (60°)10.4 mphOvercast
10:00 AM35.6 °F30.2 °F81 %30.30 in3.7 miENE (60°)10.4 mphOvercast
10:30 AM35.6 °F30.2 °F81 %30.30 in3.7 miENE (60°)10.4 mphOvercast
11:00 AM35.6 °F30.2 °F81 %30.30 in3.7 miENE (60°)12.7 mphOvercast
11:30 AM37.4 °F32.0 °F81 %30.30 in4.3 miEast (80°)6.9 mphOvercast
12:00 PM39.2 °F30.2 °F70 %30.30 in6.2 miENE (70°)9.2 mphOvercast
12:30 PM41.0 °F32.0 °F70 %30.30 in6.2 miEast (80°)10.4 mphOvercast
1:00 PM41.0 °F32.0 °F70 %30.30 in6.2 miEast (80°)11.5 mphOvercast
1:30 PM41.0 °F32.0 °F70 %30.30 in6.2 miEast (80°)12.7 mphOvercast
2:00 PM41.0 °F32.0 °F70 %30.30 in6.2 miEast (80°)10.4 mphOvercast
2:30 PM41.0 °F32.0 °F70 %30.30 in6.2 miNE (50°)11.5 mphOvercast
3:00 PM41.0 °F33.8 °F76 %30.30 in6.2 miNE (40°)10.4 mphOvercast
3:30 PM41.0 °F35.6 °F81 %30.30 in6.2 miNNE (30°)11.5 mphOvercast
4:00 PM39.2 °F35.6 °F87 %30.30 in6.2 miNE (50°)13.8 mphOvercast
4:30 PM39.2 °F35.6 °F87 %30.30 in6.2 miNE (50°)13.8 mphOvercast
5:00 PM39.2 °F35.6 °F87 %30.30 in6.2 miNE (50°)12.7 mphOvercast
5:30 PM39.2 °F33.8 °F81 %30.27 in6.2 miENE (60°)12.7 mphOvercast
6:00 PM39.2 °F33.8 °F81 %30.27 in6.2 miENE (60°)12.7 mphOvercast
6:30 PM39.2 °F33.8 °F81 %30.30 in6.2 miENE (60°)12.7 mphOvercast
7:00 PM39.2 °F35.6 °F87 %30.30 in6.2 miENE (60°)11.5 mphOvercast
7:30 PM39.2 °F33.8 °F81 %30.30 in6.2 miENE (60°)12.7 mphOvercast
8:00 PM39.2 °F32.0 °F75 %30.30 in6.2 miENE (60°)16.1 mphOvercast
8:30 PM39.2 °F32.0 °F75 %30.30 in6.2 miENE (60°)10.4 mphOvercast
9:00 PM39.2 °F32.0 °F75 %30.30 in6.2 miNE (50°)15.0 mphOvercast
9:30 PM37.4 °F28.4 °F70 %30.33 in6.2 miNE (50°)17.3 mphOvercast
10:00 PM37.4 °F28.4 °F70 %30.33 in6.2 miENE (60°)15.0 mphOvercast
10:30 PM37.4 °F28.4 °F70 %30.33 in6.2 miENE (70°)11.5 mphOvercast
11:00 PM37.4 °F28.4 °F70 %30.33 in6.2 miENE (60°)11.5 mphOvercast
11:30 PM37.4 °F28.4 °F70 %30.33 in6.2 miENE (70°)10.4 mphOvercast
Hourly data recorded from LFOH, located miles away from Le Havre, France







STORIES FROM OUR PARTNERS